This is the latest recevied weather packets stored in our database for station/object DW9280. If no packets are shown the sender has not sent any weather packets the latest 10 day(s).
| Time | Temp. | Humidity | Pressure | Rain* | Wind** | Luminosity | Snow |
|---|---|---|---|---|---|---|---|
| 1777558273 | 20.56° C | 26% | 1026.4 hPa | 0 mm | - | 638 W/m² | - |
| 1777557847 | 20.56° C | 24% | 1026.5 hPa | 0 mm | - | 647 W/m² | - |
| 1777557549 | 20.56° C | 24% | 1026.7 hPa | 0 mm | - | 654 W/m² | - |
| 1777557247 | 20.56° C | 24% | 1026.5 hPa | 0 mm | - | 663 W/m² | - |
| 1777556948 | 20.56° C | 24% | 1026.6 hPa | 0 mm | - | 673 W/m² | - |
| 1777556651 | 20.56° C | 23% | 1026.7 hPa | 0 mm | - | 679 W/m² | - |
| 1777556472 | 20.56° C | 25% | 1026.7 hPa | 0 mm | - | 687 W/m² | - |
| 1777556048 | 20.56° C | 24% | 1026.8 hPa | 0 mm | - | 694 W/m² | - |
| 1777555873 | 20.56° C | 25% | 1026.9 hPa | 0 mm | - | 703 W/m² | - |
| 1777555450 | 20.56° C | 25% | 1027 hPa | 0 mm | - | 708 W/m² | - |
| 1777555148 | 20.56° C | 25% | 1027 hPa | 0 mm | - | 715 W/m² | - |
| 1777554987 | 20.56° C | 26% | 1027.1 hPa | 0 mm | - | 721 W/m² | - |
| 1777554546 | 20.56° C | 25% | 1027.1 hPa | 0 mm | - | 729 W/m² | - |
| 1777554245 | 20.56° C | 25% | 1027.2 hPa | 0 mm | - | 735 W/m² | - |
| 1777553946 | 20.56° C | 25% | 1027.2 hPa | 0 mm | - | 742 W/m² | - |
| 1777553644 | 20° C | 26% | 1027.3 hPa | 0 mm | - | 749 W/m² | - |
| 1777553345 | 20.56° C | 25% | 1027.2 hPa | 0 mm | - | 754 W/m² | - |
| 1777553074 | 20.56° C | 26% | 1027.3 hPa | 0 mm | - | 759 W/m² | - |
| 1777552864 | 20° C | 25% | 1027.4 hPa | 0 mm | - | 766 W/m² | - |
| 1777552443 | 20° C | 26% | 1027.4 hPa | 0 mm | - | 768 W/m² | - |
| 1777552145 | 20° C | 25% | 1027.4 hPa | 0 mm | - | 772 W/m² | - |
| 1777551842 | 20° C | 27% | 1027.4 hPa | 0 mm | - | 777 W/m² | - |
| 1777551665 | 19.44° C | 25% | 1027.4 hPa | 0 mm | - | 782 W/m² | - |
| 1777551376 | 19.44° C | 24% | 1027.4 hPa | 0 mm | - | 786 W/m² | - |
| 1777550943 | 20° C | 26% | 1027.5 hPa | 0 mm | - | 786 W/m² | - |
* Rain latest hour (hover to see other rain measurements)
** Current wind speed in m/s (hover to see current wind gust speed)